Temperature
23 24 25 25 25 25 24 22 21 22 21 21 21 21 22 22 22 21 21 22 22 22 22 22 21 21 21 21 20 20 20 20 19 19 19 19 18 18 18 17 17 17 17 16
23 24 25 24 24 24 24 23 23 22 22 21 21 22 21 21 21 21 21 21 21 21 21 21 21 21 20 20 20 20 20 19 19 19 18 18 18 18 17 17 17 17 16 16
21 23 23 22 23 23 23 23 22 21 21 21 21 21 21 21 21 21 21 21 21 21 21 21 20 20 20 20 20 20 19 19 19 18 18 18 18 17 17 17 17 16 16 16
20 22 22 21 22 23 22 22 22 21 21 21 21 21 21 21 21 21 21 21 21 20 20 20 20 20 20 20 19 19 19 19 18 18 18 17 17 17 17 16 16 16 16 16
19 20 21 21 22 22 21 20 21 21 20 21 21 21 20 21 21 21 21 21 20 20 20 20 20 19 19 19 19 19 18 18 18 18 17 17 17 17 16 16 16 16 15 15
19 20 20 20 21 22 21 19 20 20 19 20 20 18 18 20 20 20 20 20 20 20 19 19 19 19 19 19 18 18 18 18 18 17 17 17 16 16 16 16 16 15 15 15
19 19 19 20 21 21 20 19 19 20 20 19 18 18 19 20 20 20 19 19 19 19 19 19 19 18 18 18 18 18 18 17 17 17 16 16 16 16 15 15 15 15 15 15
17 18 18 19 20 19 18 19 19 19 20 20 19 19 19 19 19 19 19 18 18 18 18 18 18 18 18 18 18 18 17 17 17 16 16 16 15 15 15 15 15 15 14 14
16 17 18 19 19 20 20 20 20 20 20 20 19 18 18 18 18 18 18 18 18 18 18 17 17 17 17 17 17 17 16 16 16 16 16 15 15 15 15 15 14 14 14 14
16 17 18 19 19 20 20 20 20 20 19 19 19 18 18 17 17 17 17 17 17 17 17 16 16 16 17 17 16 16 16 16 15 15 15 15 15 14 14 14 14 14 14 14
15 16 17 18 19 19 19 19 19 19 19 19 18 18 17 17 17 17 16 16 16 16 16 16 16 16 16 16 16 16 15 15 15 14 14 14 14 14 14 14 14 14 14 14
15 16 16 17 18 19 19 19 19 19 18 18 18 18 17 17 16 16 16 16 16 16 15 15 15 15 15 15 15 15 15 14 14 14 14 14 14 14 14 13 13 13 13 13
18 18 18 18 18 18 18 18 18 18 18 17 17 17 17 16 16 16 15 15 15 15 15 15 15 15 15 14 14 14 14 14 14 13 13 13 13 13 13 13 13 13 13 13
18 18 17 17 17 18 18 18 18 18 17 17 17 17 16 16 15 15 15 15 14 14 14 14 14 14 14 14 14 13 13 13 13 13 13 13 13 13 13 12 12 13 13 13
18 18 17 17 17 17 17 17 17 17 17 16 16 16 16 15 15 15 14 14 14 14 13 13 13 13 13 13 13 13 13 13 13 13 13 12 12 12 12 12 12 12 12 12
17 17 17 17 17 16 16 16 16 16 16 16 15 15 15 15 15 14 14 14 14 13 13 13 13 13 13 13 13 13 13 13 13 12 12 12 12 12 12 12 12 12 12 12
16 16 16 16 16 16 16 16 16 16 15 15 15 15 14 14 14 14 13 13 13 13 13 13 13 13 12 12 12 12 12 12 12 12 12 12 12 11 11 11 11 11 11 11
16 16 16 16 16 16 15 15 15 15 15 14 14 14 14 14 13 13 13 12 12 12 12 12 12 12 12 12 12 12 12 12 12 12 12 11 11 11 11 11 11 11 11 11
16 16 16 16 15 15 15 15 14 14 14 14 14 13 13 13 13 12 12 12 12 12 12 11 11 12 12 12 11 11 11 11 11 11 11 11 11 11 11 11 11 10 10 10
15 15 15 15 15 14 14 14 14 14 13 13 13 13 12 12 12 12 12 11 11 11 11 11 11 11 11 11 11 11 11 11 11 10 10 10 10 10 10 10 10 10 10 10
14 14 14 14 14 14 14 13 13 13 13 13 12 12 12 12 12 11 11 11 11 11 11 10 11 11 11 10 10 10 10 10 10 10 10 10 10 10 10 10 9 9 9 10
14 14 13 13 13 13 13 13 13 12 12 12 12 12 12 11 11 11 11 11 10 10 10 10 10 10 10 10 10 10 10 10 10 10 10 9 9 9 9 9 9 9 9 9
13 13 13 13 13 12 12 12 12 12 12 12 11 11 11 11 11 11 10 10 10 10 10 10 10 10 10 10 10 10 10 9 9 9 9 9 9 9 9 9 9 9 9 9
13 13 13 12 12 12 12 12 12 11 11 11 11 11 11 11 10 10 10 10 10 10 10 10 10 10 9 9 9 9 9 9 9 9 9 9 9 9 9 9 9 8 8 8
12 12 12 12 12 11 11 11 11 11 11 11 10 10 10 10 10 10 10 10 10 10 10 9 9 9 9 9 9 9 9 9 9 9 8 8 8 8 8 8 8 8 8 8
12 11 11 11 11 11 11 11 11 10 10 10 10 10 10 10 10 10 10 10 9 9 9 9 9 9 9 9 9 9 9 9 8 8 8 8 8 8 8 8 8 8 8 8
11 11 11 11 11 11 11 11 10 10 10 10 10 10 9 9 9 9 9 9 9 9 9 9 9 9 9 9 9 9 8 8 8 8 8 8 8 7 7 7 7 7 7 7
Wind_Speed
4 4 1 0 2 0 3 7 7 7 7 8 8 9 9 9 8 8 7 7 7 6 5 4 4 4 6 6 5 5 5 5 5 5 4 4 4 4 4 5 5 4 3 3
2 2 3 4 5 1 0 2 5 5 3 3 4 5 6 8 9 8 7 6 6 6 5 5 4 5 5 6 6 6 6 5 4 4 4 4 4 4 4 4 4 4 4 4
2 3 4 4 4 0 2 1 5 4 4 3 5 6 8 9 9 8 8 6 5 5 5 5 5 5 6 6 6 6 6 5 4 4 4 4 4 4 4 4 4 4 4 4
1 4 0 5 3 4 7 5 4 5 4 5 5 5 4 6 7 7 6 6 5 4 4 3 3 4 5 5 5 5 5 5 4 4 4 4 4 4 4 4 4 4 4 4
3 3 2 3 4 1 4 4 4 5 5 3 4 6 5 2 4 6 5 5 4 4 3 3 3 4 5 5 4 5 5 5 5 5 5 4 4 4 4 4 4 4 3 4
4 3 4 5 5 1 7 2 3 4 5 3 4 2 2 0 3 4 4 4 4 3 3 3 3 4 5 4 4 5 5 5 4 4 5 5 5 4 3 4 4 3 3 4
3 3 3 5 5 2 4 5 2 2 4 5 3 4 3 3 4 4 4 4 4 4 4 2 2 4 4 4 4 5 4 4 4 4 4 4 4 3 3 3 3 3 3 3
3 3 4 5 2 3 6 3 3 3 3 5 5 4 5 6 5 5 5 4 4 4 3 2 2 4 3 2 3 3 3 3 3 3 3 3 3 2 2 3 3 3 2 3
4 4 4 1 2 3 5 5 3 3 5 8 7 5 5 5 5 4 4 3 3 4 4 3 2 3 2 1 1 3 3 3 3 3 2 2 3 3 2 2 3 3 3 3
3 1 1 2 3 3 3 4 4 5 7 9 8 7 6 5 4 4 3 4 4 5 5 3 3 3 2 1 1 3 3 2 2 2 1 1 1 2 2 3 3 3 3 4
2 0 3 3 3 3 4 5 6 5 6 7 9 7 7 5 4 3 2 3 4 4 3 2 2 2 2 2 2 3 2 1 1 1 2 1 1 1 2 3 4 5 4 4
3 4 3 2 1 3 4 5 6 7 6 5 6 7 6 5 3 3 3 3 3 2 2 1 1 2 2 2 2 2 2 1 1 1 1 1 1 1 2 2 3 4 5 5
4 3 3 1 1 3 4 4 5 6 6 5 4 5 6 4 4 3 3 2 2 2 1 1 1 1 2 2 1 1 1 1 1 1 1 2 2 2 2 3 3 3 4 5
3 3 2 1 1 3 4 3 4 5 4 5 5 5 5 4 3 3 2 2 2 1 1 1 1 1 2 1 1 1 0 1 1 2 2 2 3 3 3 2 3 3 4 5
1 3 3 2 2 2 3 3 4 4 4 4 4 5 5 4 3 2 2 1 1 1 0 0 0 2 3 1 1 1 1 2 2 1 2 2 2 2 2 3 3 3 2 3
2 3 4 3 2 2 2 3 4 3 3 3 3 3 4 3 2 1 1 2 2 1 2 2 2 3 3 2 1 1 2 4 2 2 2 2 2 2 2 3 3 3 3 3
4 2 3 3 2 2 2 3 4 4 3 2 2 3 3 3 2 1 1 1 1 3 3 3 3 3 2 2 2 2 2 3 3 2 2 2 2 2 2 3 3 3 4 4
5 5 6 6 5 3 2 3 4 4 3 2 3 3 3 3 2 1 2 1 1 2 2 3 2 2 2 2 2 2 2 2 2 2 2 2 2 2 2 2 3 3 3 3
4 4 4 4 4 4 3 3 3 3 3 3 4 2 2 1 1 1 1 0 1 2 4 3 3 2 2 3 1 1 1 2 2 2 2 3 2 2 2 2 2 2 3 3
5 5 5 5 4 4 3 3 3 3 3 3 3 2 1 0 0 0 0 1 2 3 4 3 2 2 3 3 1 1 1 2 2 2 2 2 2 3 3 3 3 3 3 3
4 4 4 3 2 2 3 3 3 2 2 3 3 3 2 2 1 1 0 2 4 4 3 3 2 3 2 2 2 1 2 2 2 3 3 3 3 3 3 3 3 3 3 4
3 3 3 2 2 1 1 2 2 2 2 1 2 2 2 2 2 1 2 4 5 4 3 2 3 4 3 3 2 2 2 2 3 3 3 2 2 2 3 3 3 4 4 4
2 2 2 2 2 1 0 1 1 1 1 2 2 3 3 4 3 3 3 4 4 4 3 3 4 5 5 3 2 2 3 3 3 3 3 2 2 3 3 4 4 4 4 4
1 1 0 1 1 1 0 1 1 1 1 1 2 3 3 2 2 3 4 5 5 5 3 5 6 6 5 3 2 3 3 3 3 2 2 2 2 2 3 3 4 4 4 4
0 0 1 1 1 2 3 2 1 1 1 1 2 2 2 2 3 4 3 4 5 4 3 5 6 6 4 3 3 3 3 3 3 3 3 3 3 3 3 3 3 3 4 4
0 1 1 2 2 2 2 1 1 2 1 1 2 2 2 2 2 3 2 3 4 4 3 3 4 4 3 4 4 4 4 4 4 4 4 3 3 3 3 3 4 3 3 3
0 0 0 1 1 1 1 1 1 1 1 1 2 3 3 2 2 3 3 3 3 3 3 3 3 3 4 4 4 4 3 3 3 3 4 3 3 3 4 4 3 3 3 3
Wind_Direction
207 224 140 319 297 145 168 180 180 207 202 215 201 184 172 157 150 143 145 145 152 156 154 151 160 174 178 178 174 165 156 159 174 179 175 171 173 179 174 169 170 166 157 172
327 329 54 29 358 2 239 161 156 161 227 222 185 149 143 148 151 151 159 162 161 158 154 159 170 173 171 171 171 156 156 168 173 169 172 181 187 180 172 169 167 163 170 182
264 306 44 356 313 16 83 76 147 175 216 145 121 148 158 160 163 165 163 159 160 161 166 174 180 173 170 174 161 154 160 167 171 172 177 189 183 166 175 181 176 182 185 185
156 55 198 245 290 95 95 59 77 109 106 125 149 145 134 146 153 154 154 154 163 166 170 169 164 157 152 151 152 158 165 171 171 169 175 177 168 175 190 181 181 192 196 195
130 159 224 299 330 353 110 44 37 95 99 106 110 85 48 63 132 145 152 150 153 157 160 149 140 145 139 140 151 160 173 182 180 175 176 180 189 198 194 183 191 200 201 197
134 155 208 251 291 302 100 52 336 92 105 112 84 106 262 95 112 106 105 117 124 118 110 119 134 131 135 147 155 179 187 184 179 174 179 191 197 200 195 188 195 193 207 212
144 173 239 266 298 53 128 215 254 127 133 130 150 190 190 109 99 107 101 106 113 121 124 138 133 125 142 157 186 199 185 170 167 174 191 196 191 193 190 186 186 195 212 222
128 146 243 291 22 144 189 179 144 128 130 125 123 105 98 97 94 92 90 86 100 109 106 103 116 126 139 191 213 178 156 163 177 191 200 188 180 193 183 176 186 207 219 245
153 191 233 249 142 173 149 133 131 124 121 119 111 101 100 102 98 93 93 88 86 93 77 50 62 107 122 248 178 140 147 171 188 193 198 177 172 183 182 181 189 210 216 236
81 51 41 57 71 67 110 121 112 119 122 116 112 106 98 102 92 87 82 82 76 79 76 57 39 47 54 40 100 120 141 174 179 173 174 155 169 175 181 196 202 214 219 229
86 335 32 11 38 73 87 93 92 93 99 111 116 114 115 111 105 99 81 83 94 105 105 90 57 39 25 36 75 102 109 111 123 148 150 144 158 194 187 218 217 209 216 212
203 216 163 247 302 84 91 96 105 104 100 105 119 124 119 115 109 109 111 102 98 100 100 77 49 39 15 12 70 99 97 91 121 130 167 152 143 344 332 284 266 240 227 216
182 174 156 194 94 88 95 95 104 116 125 125 122 129 129 130 123 122 124 121 135 152 149 110 60 6 331 348 45 79 134 186 196 189 197 204 199 201 267 311 309 283 259 243
152 120 86 62 98 92 96 96 99 101 114 122 127 125 125 121 116 118 138 170 170 162 169 138 74 308 296 325 11 344 242 219 220 220 225 229 229 224 219 229 265 285 280 261
157 138 152 143 96 85 90 98 97 102 110 109 119 122 125 127 141 176 195 166 115 108 182 198 338 291 283 296 319 295 278 269 249 240 229 230 229 226 231 237 244 259 279 290
139 108 115 113 107 100 92 110 118 123 133 127 128 142 147 148 150 146 154 135 133 198 234 240 242 255 254 252 269 277 279 286 278 256 259 261 244 233 234 238 247 251 253 257
149 158 150 147 149 129 114 131 131 126 118 122 148 149 128 109 91 55 339 306 228 225 230 235 247 258 262 253 243 255 266 283 294 291 263 257 261 252 237 232 243 252 254 255
169 175 171 167 166 154 140 128 123 118 114 114 108 106 115 125 150 241 275 293 342 326 284 258 253 275 280 274 255 254 254 263 265 261 259 258 262 251 232 232 245 258 274 275
123 125 129 131 138 140 138 137 133 129 119 107 100 103 116 134 188 251 274 315 290 291 291 289 291 301 288 279 282 222 240 257 270 272 267 267 275 270 247 240 252 263 266 265
100 104 100 90 85 105 122 134 131 124 130 124 115 107 92 288 272 260 123 246 253 256 269 287 297 298 284 284 309 263 258 257 262 263 261 258 261 267 260 254 252 257 262 261
109 107 107 103 88 93 114 128 129 135 148 137 141 162 195 232 232 212 187 286 283 274 279 287 285 281 275 276 295 291 279 266 263 263 264 261 257 260 262 262 259 260 264 267
111 111 114 112 105 94 109 124 131 140 150 168 173 178 201 233 241 246 235 237 254 261 262 269 272 273 274 277 270 261 259 265 269 267 267 260 252 254 258 259 257 259 261 261
117 125 133 138 150 160 116 107 139 165 203 221 222 221 225 232 224 219 254 260 258 261 259 258 261 266 274 272 254 254 261 264 265 262 257 254 250 249 255 262 264 265 264 265
104 100 141 133 105 98 147 262 261 247 231 245 241 234 232 239 258 246 239 251 256 263 259 261 262 264 263 257 252 254 258 256 254 250 251 254 257 262 266 270 275 276 271 270
150 210 166 131 151 207 221 227 258 315 317 296 285 281 269 242 242 255 257 253 253 257 261 263 268 272 265 253 246 248 249 249 244 240 244 254 257 259 263 266 268 273 274 276
196 251 220 209 213 217 211 196 207 231 230 255 277 284 291 285 275 272 273 271 272 265 259 261 265 264 257 251 244 243 244 247 245 244 245 246 248 249 257 260 263 266 269 272
51 347 351 10 312 236 176 159 179 227 232 231 261 277 278 282 284 284 281 276 271 267 270 267 259 254 254 255 250 250 249 248 246 241 242 239 239 245 250 249 253 263 274 281
Height
1478 1474 1472 1474 1474 1474 1480 1487 1496 1494 1491 1485 1481 1481 1482 1484 1487 1489 1490 1491 1492 1493 1495 1496 1498 1499 1501 1502 1503 1504 1505 1505 1506 1507 1508 1509 1510 1511 1511 1511 1512 1513 1513 1514
1477 1472 1472 1476 1475 1473 1476 1478 1482 1484 1486 1478 1478 1480 1482 1484 1485 1487 1489 1490 1491 1492 1493 1495 1496 1497 1498 1500 1501 1502 1503 1503 1504 1505 1506 1506 1507 1507 1508 1509 1509 1510 1511 1511
1488 1477 1477 1490 1480 1476 1478 1476 1478 1485 1483 1478 1479 1481 1482 1483 1484 1485 1487 1489 1490 1491 1492 1493 1494 1495 1496 1497 1498 1499 1500 1501 1502 1503 1503 1503 1504 1504 1505 1506 1506 1507 1508 1509
1489 1487 1501 1491 1473 1471 1476 1477 1475 1476 1477 1478 1479 1480 1481 1482 1483 1484 1486 1488 1489 1491 1491 1492 1493 1493 1494 1495 1496 1497 1497 1499 1500 1500 1501 1501 1501 1502 1502 1503 1503 1504 1505 1505
1494 1497 1495 1484 1476 1475 1478 1484 1478 1477 1478 1479 1479 1481 1483 1484 1483 1484 1485 1486 1488 1489 1490 1490 1491 1491 1492 1493 1494 1494 1495 1496 1497 1497 1498 1498 1499 1499 1500 1500 1501 1501 1502 1502
1490 1496 1501 1489 1475 1472 1476 1489 1480 1478 1479 1479 1480 1486 1486 1483 1483 1484 1485 1485 1486 1487 1488 1488 1489 1490 1490 1490 1491 1492 1492 1493 1494 1495 1496 1496 1496 1497 1497 1498 1498 1499 1499 1500
1489 1495 1493 1479 1472 1472 1489 1490 1480 1478 1478 1478 1480 1482 1482 1481 1482 1483 1484 1484 1485 1486 1487 1487 1488 1488 1488 1488 1488 1489 1490 1491 1491 1492 1493 1493 1494 1494 1494 1495 1495 1496 1496 1497
1489 1496 1496 1475 1473 1478 1480 1476 1477 1477 1476 1477 1478 1479 1479 1480 1481 1482 1482 1483 1484 1484 1485 1485 1486 1486 1486 1486 1486 1486 1487 1488 1489 1489 1490 1491 1491 1491 1492 1493 1493 1493 1493 1493
1484 1488 1479 1474 1474 1474 1473 1474 1475 1476 1476 1476 1477 1479 1479 1480 1481 1482 1483 1483 1484 1484 1483 1484 1484 1484 1484 1484 1484 1484 1485 1485 1486 1486 1487 1488 1488 1488 1489 1490 1490 1490 1490 1490
1481 1480 1477 1476 1475 1475 1475 1474 1475 1475 1476 1476 1478 1479 1479 1480 1481 1483 1483 1483 1483 1483 1483 1483 1483 1482 1482 1482 1482 1482 1482 1482 1483 1483 1484 1484 1485 1485 1485 1486 1487 1487 1487 1487
1481 1479 1477 1477 1476 1476 1476 1476 1476 1477 1478 1478 1478 1479 1480 1481 1482 1483 1483 1483 1483 1483 1483 1482 1482 1481 1481 1480 1480 1479 1479 1480 1480 1481 1480 1481 1481 1481 1481 1482 1483 1484 1484 1484
1482 1478 1478 1478 1477 1477 1477 1477 1477 1477 1478 1480 1479 1480 1480 1481 1482 1482 1483 1483 1483 1482 1482 1481 1481 1480 1480 1478 1478 1477 1477 1477 1478 1478 1478 1477 1478 1478 1478 1479 1479 1480 1480 1480
1475 1476 1477 1477 1477 1477 1477 1477 1477 1477 1478 1479 1480 1480 1480 1481 1482 1482 1483 1483 1482 1481 1481 1480 1479 1479 1478 1477 1476 1476 1476 1476 1476 1476 1476 1475 1476 1476 1475 1476 1476 1476 1476 1476
1473 1474 1475 1476 1476 1476 1476 1477 1477 1477 1478 1478 1479 1479 1480 1480 1481 1481 1481 1481 1481 1480 1480 1479 1478 1478 1477 1476 1475 1475 1474 1474 1474 1474 1474 1473 1473 1473 1473 1472 1472 1472 1472 1472
1473 1473 1474 1475 1476 1476 1476 1476 1476 1477 1477 1478 1478 1479 1479 1479 1479 1479 1480 1479 1479 1478 1478 1477 1476 1476 1476 1475 1474 1473 1473 1472 1472 1472 1471 1471 1470 1470 1470 1469 1469 1469 1469 1469
1472 1472 1473 1474 1475 1475 1475 1475 1475 1476 1476 1477 1477 1477 1478 1478 1478 1478 1478 1477 1476 1476 1475 1474 1473 1474 1474 1473 1472 1471 1471 1470 1470 1469 1468 1468 1467 1467 1466 1466 1466 1466 1465 1465
1470 1471 1472 1473 1473 1474 1474 1474 1474 1475 1475 1476 1476 1476 1476 1476 1476 1476 1475 1475 1474 1473 1473 1472 1471 1471 1471 1470 1469 1468 1468 1467 1467 1466 1465 1465 1464 1464 1463 1463 1462 1462 1461 1461
1468 1468 1469 1470 1471 1471 1472 1473 1473 1473 1474 1474 1474 1475 1474 1474 1474 1474 1473 1473 1472 1471 1470 1470 1469 1468 1467 1467 1466 1465 1464 1464 1463 1462 1462 1461 1461 1460 1460 1459 1458 1458 1457 1457
1466 1467 1468 1469 1469 1470 1471 1471 1472 1472 1472 1472 1472 1473 1472 1472 1472 1471 1471 1470 1469 1468 1467 1467 1466 1465 1464 1463 1462 1462 1461 1460 1459 1458 1458 1457 1457 1456 1456 1455 1454 1454 1453 1453
1465 1466 1467 1467 1468 1469 1469 1470 1470 1470 1470 1470 1470 1470 1470 1470 1469 1469 1468 1467 1467 1466 1465 1464 1462 1461 1460 1459 1459 1458 1457 1456 1455 1455 1454 1453 1452 1452 1451 1451 1450 1449 1449 1448
1463 1464 1465 1466 1467 1467 1467 1467 1467 1468 1468 1468 1468 1467 1467 1467 1467 1466 1465 1464 1464 1463 1462 1461 1460 1458 1457 1456 1455 1454 1453 1452 1452 1451 1450 1449 1448 1448 1447 1446 1446 1445 1444 1444
1462 1463 1464 1464 1465 1465 1465 1465 1465 1465 1465 1465 1465 1464 1464 1464 1464 1463 1462 1462 1461 1460 1459 1458 1457 1456 1454 1453 1452 1451 1450 1449 1448 1447 1446 1445 1444 1444 1443 1442 1442 1441 1440 1439
1461 1461 1462 1462 1462 1462 1463 1463 1463 1462 1462 1462 1461 1461 1461 1461 1460 1459 1459 1458 1458 1457 1456 1455 1453 1452 1451 1449 1448 1447 1446 1445 1444 1443 1442 1441 1440 1440 1439 1438 1437 1436 1435 1435
1459 1460 1460 1460 1460 1460 1460 1460 1460 1460 1459 1459 1459 1458 1458 1457 1456 1456 1455 1455 1454 1453 1452 1451 1449 1448 1447 1446 1444 1443 1442 1441 1440 1439 1438 1437 1436 1436 1435 1434 1433 1432 1431 1430
1458 1458 1458 1458 1458 1458 1458 1458 1458 1457 1457 1456 1456 1455 1455 1454 1453 1453 1452 1451 1450 1449 1448 1447 1446 1444 1443 1442 1441 1440 1438 1437 1436 1435 1434 1433 1432 1431 1430 1429 1428 1427 1426 1425
1456 1456 1456 1456 1456 1456 1456 1455 1455 1455 1454 1454 1453 1453 1452 1451 1450 1449 1448 1447 1446 1445 1444 1443 1442 1440 1439 1438 1437 1436 1434 1433 1433 1431 1430 1429 1427 1426 1425 1424 1423 1422 1421 1420
1455 1455 1454 1454 1454 1454 1454 1453 1453 1452 1452 1451 1450 1449 1449 1448 1447 1446 1445 1443 1442 1441 1440 1439 1438 1436 1435 1434 1433 1431 1430 1430 1428 1427 1425 1424 1423 1422 1421 1420 1419 1418 1416 1415